This demonstration page uses our WeatherBlox Daily Observations layout. Learn more.

38.88101, -77.10428

Hourly Observations for March 14, 2018

Temp ( °F °C ) Dew Point ( °F °C ) Humidity (%) Winds ( mph kmh ) Pressure ( in mb ) Visibility ( mi km ) Precip ( " mm )
12:52 am 00:52 Mostly Clear 36 2.2 21 -6.1 55 55 WNW 13 20 29.88 1012 10 16.0934 0 0
1:52 am 01:52 Mostly Clear 35 1.7 20 -6.7 54 54 W 10 17 29.88 1012 10 16.0934 0 0
2:52 am 02:52 Clear 34 1.1 19 -7.2 54 54 W 10 17 29.87 1011 10 16.0934 0 0
3:52 am 03:52 Clear 33 0.6 18 -7.8 54 54 W 10 17 29.85 1011 10 16.0934 0 0
4:52 am 04:52 Clear 33 0.6 17 -8.3 52 52 W 9 15 29.85 1011 10 16.0934 0 0
5:52 am 05:52 Clear 33 0.6 18 -7.8 54 54 W 10 17 29.84 1010 10 16.0934 0 0
6:52 am 06:52 Partly Cloudy 32 0 17 -8.3 54 54 WNW 8 13 29.84 1011 10 16.0934 0 0
7:52 am 07:52 Mostly Cloudy 33 0.6 17 -8.3 52 52 WNW 12 19 29.85 1011 10 16.0934 0 0
8:52 am 08:52 Partly Cloudy 34 1.1 16 -8.9 48 48 WNW 16 26 29.85 1011 10 16.0934 0 0
9:52 am 09:52 Mostly Sunny 36 2.2 15 -9.4 42 42 W 22 35 29.85 1011 10 16.0934 0 0
10:52 am 10:52 Mostly Sunny 39 3.9 15 -9.4 38 38 WNW 20 31 29.83 1010 10 16.0934 0 0
11:52 am 11:52 Partly Cloudy 41 5 14 -10 33 33 WNW 17 28 29.82 1010 10 16.0934 0 0
12:52 pm 12:52 Mostly Cloudy 40 4.4 16 -8.9 38 38 WNW 20 31 29.82 1010 10 16.0934 0 0
1:52 pm 13:52 Mostly Cloudy 41 5 15 -9.4 35 35 NW 23 37 29.79 1009 10 16.0934 0 0
2:52 pm 14:52 Cloudy 42 5.6 13 -10.6 30 30 WNW 20 31 29.76 1008 10 16.0934 0 0
3:52 pm 15:52 Cloudy 43 6.1 13 -10.6 29 29 WNW 24 39 29.76 1008 10 16.0934 0 0
4:52 pm 16:52 Cloudy 42 5.6 13 -10.6 30 30 WNW 23 37 29.75 1008 10 16.0934 0 0
5:52 pm 17:52 Cloudy 41 5 13 -10.6 32 32 WNW 25 41 29.77 1008 10 16.0934 0 0
6:52 pm 18:52 Cloudy 39 3.9 13 -10.6 34 34 WNW 17 28 29.8 1009 10 16.0934 0 0
7:52 pm 19:52 Cloudy 39 3.9 13 -10.6 34 34 WNW 20 31 29.82 1010 10 16.0934 0 0
8:52 pm 20:52 Cloudy 38 3.3 14 -10 37 37 W 21 33 29.83 1010 10 16.0934 0 0
9:52 pm 21:52 Cloudy 37 2.8 15 -9.4 41 41 WNW 21 33 29.85 1011 10 16.0934 0 0
10:52 pm 22:52 Cloudy 37 2.8 15 -9.4 41 41 W 14 22 29.85 1011 10 16.0934 0 0
11:52 pm 23:52 Cloudy 37 2.8 14 -10 39 39 WNW 18 30 29.86 1011 10 16.0934 0 0

Powered by AerisWeather